AKST,Max TemperatureF,Mean TemperatureF,Min TemperatureF,Max Dew PointF,MeanDew PointF,Min DewpointF,Max Humidity, Mean Humidity, Min Humidity, Max Sea Level PressureIn, Mean Sea Level PressureIn, Min Sea Level PressureIn, Max VisibilityMiles, Mean VisibilityMiles, Min VisibilityMiles, Max Wind SpeedMPH, Mean Wind SpeedMPH, Max Gust SpeedMPH,PrecipitationIn, CloudCover, Events, WindDirDegrees
2012-11-1,30,24,19,11,3,0,65,40,32,29.84,29.77,29.68,10,10,7,25,17,39,0.00,0,,46
2012-11-2,35,26,16,16,10,1,77,53,27,29.63,29.37,29.23,10,10,8,24,8,37,0.00,4,,34
2012-11-3,28,22,16,15,12,7,88,66,46,29.37,29.35,29.34,10,10,9,20,9,28,0.00,2,,35
2012-11-4,26,18,10,18,13,8,95,83,72,29.43,29.36,29.32,10,10,8,5,1,,0.00,1,,151
2012-11-5,21,16,10,18,11,6,92,79,68,29.77,29.61,29.45,10,10,6,6,2,,0.00,7,Snow,2
2012-11-6,21,16,10,18,13,5,92,80,58,30.15,29.97,29.79,10,10,9,8,1,,0.00,5,,185
2012-11-7,17,10,1,11,4,-4,92,83,67,30.39,30.31,30.17,10,6,0,5,0,,0.00,2,Fog,98
2012-11-8,21,12,3,16,9,0,88,85,66,30.40,30.31,30.20,10,10,9,7,1,,0.00,4,,92
2012-11-9,32,26,21,25,15,2,92,62,34,30.17,29.97,29.76,10,8,2,17,11,24,0.00,8,Snow,9
2012-11-10,30,28,26,25,25,23,92,88,82,29.75,29.63,29.57,10,10,8,4,0,,0.00,8,,140
2012-11-11,34,29,24,29,26,23,100,88,75,29.80,29.67,29.57,10,9,2,0,0,,0.00,7,Snow,-1
2012-11-12,33,28,24,29,27,18,100,91,77,30.05,29.96,29.81,10,7,0,7,0,,0.00,8,Fog-Snow,345
2012-11-13,28,26,23,25,18,12,100,75,53,30.06,29.91,29.66,10,8,0,16,6,22,0.01,7,Fog-Snow,351
2012-11-14,28,24,19,23,20,15,92,77,58,29.64,29.41,29.29,10,10,9,16,9,,0.00,7,Snow,47
2012-11-15,25,20,16,22,18,13,100,92,86,29.60,29.50,29.36,10,9,6,5,0,,0.00,5,,135
2012-11-16,28,21,14,20,10,-7,96,73,25,29.62,29.56,29.44,10,5,0,43,6,59,0.00,2,Fog,62
2012-11-17,21,16,12,10,5,-8,88,64,29,29.44,29.23,29.08,10,10,8,25,10,44,0.00,6,,75
2012-11-18,17,12,8,14,9,5,92,86,77,29.33,29.18,29.07,10,10,10,5,1,,0.00,1,,118
2012-11-19,14,8,1,8,3,-3,91,81,64,29.52,29.42,29.34,10,10,10,5,2,,0.00,1,,125
2012-11-20,10,6,1,6,1,-2,91,84,80,29.69,29.64,29.54,10,10,9,4,0,,0.00,2,,80
2012-11-21,8,4,0,5,-1,-4,95,85,79,29.84,29.73,29.68,10,10,9,4,0,,0.00,0,,160
2012-11-22,8,4,0,5,-1,-5,91,84,79,29.87,29.69,29.44,10,10,9,7,1,,0.00,0,,133
2012-11-23,17,11,5,12,6,1,92,83,76,29.75,29.62,29.47,10,10,10,5,1,,0.00,0,,140
2012-11-24,14,8,3,9,5,0,88,85,80,30.01,29.86,29.76,10,10,9,0,0,,0.00,0,,-1
2012-11-25,9,4,0,7,2,-4,92,86,80,30.24,30.13,30.04,10,10,9,5,0,,0.00,0,,130
2012-11-26,9,4,0,7,-1,-5,95,83,79,30.32,30.27,30.21,10,10,8,4,0,,0.00,0,,140
2012-11-27,7,2,-2,3,-5,-8,87,81,75,30.20,30.09,30.00,10,7,0,4,0,,0.00,2,Fog,130
2012-11-28,10,4,-2,5,-2,-7,87,81,73,30.00,29.83,29.67,10,10,9,9,2,22,0.00,0,,129
2012-11-29,30,18,6,3,-12,-20,80,27,10,29.63,29.53,29.47,10,9,6,45,22,68,0.00,0,Snow,31
2012-11-30,26,24,21,-8,-10,-14,27,22,18,29.61,29.58,29.56,10,9,8,48,40,66,0.00,0,,22